Back to catalog

COSMOS 2315

AliveMilitaryPO
NORAD 23603·PAYLOAD·🇷🇺 Russia

Launched Jul 5, 1995 from Plesetsk Cosmodrome

Loading…

Next Passes (next 24 hours)

TLE

FreshSource: Space-Track

Epoch: Sep 14, 2026, 14:22 UTC

1 23603U 95032A   26257.59891424  .00000058  00000-0  46076-4 0  9997
2 23603  82.9077 185.2900 0030286 331.5027 202.0351 13.73097698562968

Track COSMOS 2315 in real time with AllMySat

Download on the App Store